Zurück zum Katalog

STARLINK-3631

AktivKommunikationVLEO
NORAD 51790·PAYLOAD·🇺🇸 United States

Gestartet Feb 25, 2022 von Vandenberg Space Force Base

Loading…

Nächste Überflüge (nächste 24 Stunden)

TLE

AktuellSource: CelesTrak SupGP

Epoche: Sep 14, 2026, 20:50 UTC

1 51790C 22017Y   26257.86854167  .00038615  00000+0  22787-2 0  2578
2 51790  53.2114 219.0681 0002702  85.2120 191.9914 15.11023995    17

Verfolge STARLINK-3631 in Echtzeit mit AllMySat

Download on the App Store